GFSSW_850_spd_021.txt.gz
Wind_Speed
17 18 18 18 18 18 18 20 18 17 16 15 15 17 19 24 28 27 31 30 23 20 20 11 6 13 19 18 20 16 3 5 11 11 16 26 13 22 19 7 12 16 13 20 20
17 18 19 19 20 21 21 20 20 20 18 18 17 16 17 21 26 33 32 32 28 22 20 25 19 15 24 22 17 16 6 10 11 15 17 20 16 28 21 11 18 25 20 32 29
16 17 17 19 20 21 21 21 21 20 20 20 18 17 16 18 23 21 11 19 24 25 27 21 20 22 27 28 27 25 22 16 20 27 31 25 26 26 21 8 12 11 18 18 22
17 17 18 19 20 20 20 21 21 22 21 20 20 19 16 14 6 6 1 12 10 21 26 26 23 24 10 19 29 19 27 28 23 32 34 24 31 25 26 22 28 31 34 26 23
19 20 21 21 20 20 20 20 20 21 22 23 21 20 20 12 26 12 15 10 15 11 27 25 25 19 12 10 22 25 21 27 30 31 36 40 32 27 31 36 36 30 34 33 29
20 22 23 24 24 23 23 22 20 20 21 23 23 22 17 18 17 14 14 22 18 11 17 24 22 23 18 16 20 22 23 28 28 34 35 28 30 31 31 32 34 35 40 41 33
18 19 20 20 20 22 24 25 24 23 22 20 20 19 21 34 24 17 22 19 13 19 19 22 23 20 7 12 30 27 20 19 26 29 28 32 28 29 34 34 38 35 37 34 34
24 25 25 24 24 23 26 25 22 20 21 18 19 14 14 25 17 16 24 21 19 18 20 21 21 19 15 19 23 18 15 21 22 20 29 18 40 20 30 35 29 37 43 37 35
26 27 29 29 28 28 31 25 20 14 19 20 19 10 15 11 16 7 10 18 15 20 22 18 19 21 15 6 8 17 21 22 24 22 18 14 33 17 32 32 34 43 43 42 43
27 29 29 30 27 26 24 22 18 16 12 8 11 10 18 11 7 7 3 6 10 16 19 17 16 10 10 11 18 12 21 24 29 11 18 23 31 29 43 36 36 38 37 38 35
27 31 34 30 26 18 20 26 31 9 6 18 28 19 40 21 21 7 8 12 9 11 7 15 8 21 36 24 15 15 18 21 20 18 15 23 25 25 24 20 20 27 33 33 36
29 30 29 25 20 12 15 18 20 21 24 39 36 43 42 41 36 33 24 24 12 8 8 10 22 27 17 16 18 19 23 24 15 12 13 20 18 22 23 14 26 35 30 27 31
27 28 27 20 14 13 18 21 24 26 15 39 31 35 44 31 33 34 29 26 15 13 13 16 17 17 21 19 19 25 26 20 19 10 17 15 15 19 17 19 20 24 28 32 29
26 27 22 21 9 14 16 26 24 23 4 10 28 14 15 26 26 33 34 29 18 18 15 16 19 22 19 22 21 24 15 21 18 11 16 10 16 21 13 17 19 25 30 40 40
25 24 16 12 17 13 22 26 20 11 4 18 13 15 18 14 13 13 19 24 17 16 11 23 14 9 19 22 20 24 15 18 13 16 17 19 9 18 9 8 9 10 24 29 32
22 17 15 11 14 21 22 18 14 3 4 9 6 11 11 12 10 18 9 17 19 15 14 17 20 17 17 17 19 17 16 18 16 12 11 19 15 25 14 11 9 9 22 31 34
20 11 8 8 10 18 17 17 2 2 14 12 19 18 15 15 18 17 17 13 6 6 11 12 14 18 20 18 17 16 12 6 10 10 17 14 12 18 7 13 22 15 22 16 5
18 7 8 7 9 17 16 5 2 6 14 16 19 11 10 14 14 17 17 10 13 11 10 9 9 9 10 17 11 13 15 9 13 12 17 13 8 11 19 12 20 23 22 17 24
15 5 5 3 7 11 10 3 1 9 12 17 19 9 11 12 1 7 12 10 8 5 2 5 8 12 17 16 13 19 16 20 17 10 8 5 13 21 26 20 11 14 18 28 31
20 13 5 8 10 9 3 4 9 14 18 11 11 10 16 12 9 13 6 7 11 4 2 1 7 8 16 14 14 18 11 7 11 13 13 7 13 12 12 19 16 8 17 28 33
10 5 6 8 4 3 0 4 19 16 26 5 4 18 11 11 4 8 8 11 9 10 10 7 4 9 10 3 8 7 16 11 9 7 11 6 10 11 19 15 11 12 26 33 36
6 3 4 9 4 3 2 16 22 21 27 14 12 12 12 16 13 9 10 9 11 8 6 3 3 6 13 18 17 18 21 16 9 19 9 4 9 8 6 7 10 14 28 34 38
16 8 10 4 2 2 9 14 19 19 12 11 14 14 11 9 7 5 4 12 15 6 1 4 3 5 8 6 8 7 12 15 7 5 20 10 13 4 11 7 12 20 30 32 37
8 4 8 16 16 10 11 11 15 19 15 17 13 15 7 4 8 8 7 8 10 13 7 5 3 6 8 10 8 11 20 16 11 9 8 13 19 10 13 8 17 25 32 35 35
4 5 12 5 11 14 11 11 18 18 12 19 5 12 16 11 16 13 14 14 2 7 4 3 4 10 15 18 12 16 19 19 16 15 11 16 8 12 6 9 15 28 32 33 32
8 7 10 17 19 17 8 7 14 12 15 8 15 14 11 15 13 16 13 10 10 9 4 4 3 10 13 14 11 17 20 19 20 22 17 20 19 6 1 18 14 25 30 27 31
9 9 13 8 9 10 10 18 18 16 9 23 17 9 12 15 21 30 26 22 14 11 9 8 5 3 5 9 8 8 16 18 14 18 21 18 17 8 8 11 10 18 26 29 31

GFSSW_850_spd_024.txt.gz
Wind_Speed
15 16 16 17 18 18 18 18 19 18 18 18 17 18 20 21 23 24 31 29 24 21 22 13 12 10 17 12 16 14 0 5 6 6 7 14 8 40 17 17 8 2 10 10 13
16 16 17 18 19 19 18 18 17 19 19 19 19 19 21 24 28 33 29 26 27 22 23 27 20 10 10 12 9 8 7 9 9 5 5 8 7 26 27 20 19 20 8 18 16
16 17 19 20 20 20 20 20 19 18 18 19 19 19 21 23 27 12 11 7 8 23 28 24 23 18 13 21 14 7 14 13 17 19 20 17 18 16 23 16 19 7 21 25 19
16 17 19 19 19 19 20 21 22 23 22 19 20 21 21 18 7 9 5 7 6 8 30 32 21 10 7 11 22 14 20 22 23 27 24 17 26 21 23 28 28 30 29 27 19
19 19 20 22 22 22 21 21 21 22 24 24 24 23 23 11 24 12 14 8 3 12 28 29 25 18 7 7 13 20 19 23 25 28 32 31 27 25 33 36 34 33 31 25 29
19 19 20 21 21 21 21 23 24 24 24 24 24 22 11 13 15 12 21 25 17 13 13 29 12 20 7 6 10 5 9 19 28 30 32 22 26 30 35 37 39 35 36 38 38
18 19 21 21 21 20 21 23 24 21 22 24 20 19 17 30 24 22 22 22 19 13 16 24 25 13 10 4 24 21 10 14 22 18 19 26 26 28 34 38 34 35 38 39 39
25 26 28 29 28 25 23 21 15 15 16 20 18 16 14 34 19 16 11 24 23 17 14 13 14 11 21 11 10 3 4 17 21 18 15 12 35 20 26 28 33 37 40 43 45
27 27 27 27 26 26 22 22 17 15 14 16 17 11 16 11 12 9 13 16 21 14 10 12 10 14 8 3 1 7 17 20 26 6 4 11 39 15 29 31 27 28 34 38 46
27 26 28 28 25 20 17 22 20 10 19 15 7 10 11 16 9 21 11 1 7 5 12 10 7 6 4 6 18 9 19 19 16 6 13 18 36 21 29 30 33 37 42 40 43
27 27 26 21 17 11 15 23 29 3 26 13 29 29 40 46 46 39 10 16 14 9 6 6 4 18 27 16 8 10 11 10 5 10 11 22 24 21 22 24 20 27 32 39 43
26 25 24 15 10 9 15 20 23 21 16 28 23 30 36 38 39 50 26 12 5 7 5 4 19 12 9 6 10 14 16 19 6 9 15 18 28 24 23 23 28 33 34 36 41
24 23 22 15 7 9 11 19 20 20 5 16 21 21 28 15 33 39 29 23 11 9 6 11 6 8 15 12 16 16 19 12 8 12 22 9 19 8 15 14 21 27 36 33 29
23 21 17 17 2 13 15 20 19 18 2 5 9 8 19 5 4 20 24 23 9 11 9 10 11 14 14 16 18 19 12 13 16 13 13 8 19 22 14 22 16 20 28 33 37
23 19 13 9 10 13 20 19 19 4 4 13 11 12 18 16 22 12 17 25 23 20 7 11 9 4 14 17 15 19 10 16 13 8 15 16 6 25 10 16 17 15 30 31 32
23 16 10 7 11 15 17 20 8 5 3 9 9 17 14 17 17 5 9 24 15 19 17 14 17 14 12 12 11 6 9 15 12 2 8 14 11 9 14 15 8 9 21 31 33
24 15 9 10 13 17 18 14 5 4 10 10 14 18 8 8 12 10 6 2 1 5 6 7 13 11 13 12 10 4 1 3 2 5 16 12 10 21 9 8 15 16 23 34 32
25 15 9 11 11 15 17 5 7 4 5 12 14 22 6 7 6 13 10 7 5 6 7 5 5 6 2 1 7 7 9 5 7 4 4 12 9 7 16 20 37 34 34 25 16
28 9 7 7 9 10 8 5 4 0 10 7 16 9 8 10 3 8 6 3 6 9 5 5 3 6 9 6 4 4 10 5 6 15 1 5 8 9 19 24 21 20 12 16 20
23 10 5 5 6 8 4 2 2 7 10 12 3 4 9 10 7 6 5 2 7 5 5 4 4 4 6 7 4 7 5 5 3 7 6 5 6 8 7 11 12 12 11 21 25
10 6 6 1 6 2 2 5 8 19 14 6 2 4 14 9 7 8 3 4 4 4 5 3 2 4 4 4 6 3 1 3 3 4 8 3 6 11 11 13 18 8 21 32 32
11 2 3 4 3 2 1 8 16 14 19 4 5 4 5 7 4 4 1 3 10 6 5 2 1 3 8 11 12 4 6 5 3 6 5 2 12 17 8 12 12 14 25 30 34
18 7 4 10 3 4 6 9 10 13 16 7 4 4 2 3 5 6 3 7 9 1 2 3 2 4 9 2 0 4 3 2 4 5 16 8 7 12 3 12 6 18 25 30 35
8 4 6 6 14 1 6 5 9 14 15 17 11 4 7 5 4 6 10 5 10 6 7 3 3 5 5 5 7 6 9 6 1 3 11 16 15 25 16 13 3 18 28 32 36
6 2 5 4 8 9 7 8 16 10 4 12 4 9 1 5 4 3 7 10 1 10 4 3 5 6 12 16 16 14 15 10 9 8 4 6 14 17 14 11 14 26 30 31 32
8 6 8 14 13 6 5 3 12 15 11 8 8 17 9 5 9 13 6 4 8 8 8 8 4 4 16 18 18 18 14 14 13 13 11 18 21 18 14 3 14 27 32 29 31
13 7 8 8 5 5 3 14 14 18 9 17 14 14 9 11 15 24 29 27 14 9 8 8 4 2 7 14 8 6 13 11 5 8 4 7 6 14 6 8 5 21 30 31 32

GFSSW_850_spd_030.txt.gz
Wind_Speed
14 14 14 15 15 15 15 14 15 16 17 18 19 20 21 22 23 25 28 25 20 22 16 19 12 11 17 15 13 7 2 5 7 8 5 3 1 10 3 4 5 2 8 9 3
15 15 16 17 18 18 17 17 16 16 17 19 20 21 22 23 27 26 18 22 25 24 24 21 19 16 12 12 12 7 5 9 6 7 4 5 3 9 4 10 6 12 6 9 5
17 17 18 19 20 20 20 19 18 17 18 19 21 23 24 23 21 3 3 4 8 8 12 23 20 20 15 11 13 9 11 11 7 16 18 10 12 13 4 5 10 12 22 14 15
17 18 19 19 21 21 21 20 20 21 21 21 20 21 21 18 4 4 9 17 22 20 14 15 19 9 8 11 14 5 17 19 11 14 8 6 14 16 23 14 27 30 29 33 30
18 18 19 20 20 19 18 17 17 19 20 22 21 20 18 14 15 12 12 16 18 17 11 8 23 12 6 6 8 14 7 18 27 18 18 15 19 15 31 32 36 35 35 38 37
18 18 19 20 18 15 13 14 17 20 21 22 21 17 10 6 18 22 22 21 21 20 15 8 8 20 9 6 17 2 14 15 15 15 13 10 18 12 15 23 26 28 36 38 38
21 21 21 22 21 18 13 14 15 20 18 15 21 20 16 20 14 13 13 15 23 21 21 18 13 12 5 3 13 10 6 3 8 10 10 15 20 28 34 28 32 38 41 40 39
23 23 22 23 20 17 16 17 17 20 18 19 27 14 12 14 24 12 25 26 23 27 14 17 11 15 16 9 5 4 5 16 14 8 7 14 29 20 22 26 33 36 36 35 35
24 23 22 22 21 20 19 20 20 24 17 19 15 8 10 19 23 23 22 21 19 20 18 11 13 11 5 5 4 4 16 9 5 8 10 13 31 7 16 18 24 28 32 35 39
24 23 21 21 19 18 17 20 20 6 11 14 7 7 8 23 27 25 20 8 12 22 9 7 9 4 4 7 13 9 5 2 5 5 15 14 32 14 21 23 25 27 36 39 40
23 21 19 18 16 15 18 20 19 5 22 11 18 17 25 24 26 23 20 10 6 4 4 6 4 14 15 16 5 4 2 1 3 4 4 17 21 16 13 21 22 30 34 38 42
23 21 18 15 11 9 13 7 9 11 12 17 16 17 19 20 14 25 16 3 4 4 2 5 10 8 5 7 10 6 1 3 5 8 4 7 12 9 8 14 22 29 30 33 39
23 22 18 11 6 9 10 6 12 15 4 13 12 10 13 20 11 16 10 3 3 4 4 6 8 3 7 5 5 4 9 3 6 8 12 8 18 12 8 16 27 31 33 38 37
23 22 17 8 3 13 3 12 15 7 3 5 7 4 22 23 3 10 11 6 2 4 3 5 7 6 6 9 7 5 3 1 2 3 8 2 9 15 15 18 14 19 29 32 37
25 20 13 7 9 12 13 16 11 3 4 11 4 8 32 4 15 5 21 6 6 7 3 11 4 3 5 6 7 9 8 8 7 6 3 3 5 13 5 11 12 16 31 36 45
26 20 11 2 8 12 16 18 4 5 4 7 9 12 15 13 13 7 14 11 7 5 7 24 7 5 7 7 9 6 6 4 1 2 7 7 6 21 9 12 7 15 25 32 31
26 14 1 2 7 13 18 3 4 4 4 5 8 12 17 5 9 5 10 7 2 5 5 10 14 11 5 3 2 5 5 2 1 2 12 12 9 24 4 6 4 9 15 18 18
19 8 5 3 6 12 16 4 5 1 5 5 9 16 4 6 5 7 7 5 2 7 4 3 2 6 5 11 7 7 7 5 6 6 5 6 12 8 11 13 18 14 18 24 27
15 4 4 4 7 13 9 4 5 4 3 6 13 3 4 4 3 6 4 3 4 6 5 2 4 5 2 2 9 4 4 7 3 3 1 5 7 8 16 10 8 9 19 24 25
16 4 4 4 8 12 5 2 3 4 6 5 3 3 4 6 6 6 4 2 4 3 3 3 4 7 6 5 5 4 4 3 1 4 5 6 6 6 6 2 4 8 11 27 25
12 2 4 6 8 4 3 4 5 9 9 3 4 4 7 7 4 4 5 7 1 5 6 4 0 5 2 3 4 1 1 2 2 5 4 2 5 6 15 4 8 10 20 28 11
9 2 5 6 4 2 1 5 10 7 5 5 4 8 7 4 5 4 6 3 7 3 5 1 1 4 5 5 5 2 3 1 4 8 4 3 6 6 6 7 8 13 23 15 4
12 5 5 8 2 3 5 5 6 4 5 3 4 3 3 3 5 4 6 5 14 2 4 1 1 3 5 3 5 2 3 3 1 0 5 4 7 5 9 14 18 14 19 5 7
7 4 4 6 4 2 4 7 5 7 7 3 5 6 3 4 7 6 8 6 5 3 9 1 2 5 5 2 2 4 8 8 3 3 5 10 9 22 19 12 16 21 19 4 8
8 2 3 4 3 6 4 5 8 6 4 6 3 4 8 7 12 14 13 7 9 6 1 4 4 3 8 11 8 8 13 13 15 13 8 3 2 16 14 15 18 23 21 11 14
7 5 4 7 13 4 4 3 8 8 5 10 7 15 13 13 13 21 18 8 9 5 7 6 4 2 11 10 11 14 17 16 15 19 16 14 15 16 19 20 17 19 21 16 21
9 4 4 6 4 2 3 4 8 16 9 12 16 16 15 18 18 30 32 32 15 5 6 5 2 1 4 5 4 11 16 22 18 14 13 14 11 15 13 12 8 17 20 18 25

GFSSW_850_spd_033.txt.gz
Wind_Speed
12 13 13 13 13 13 13 13 13 14 15 17 18 18 18 19 18 18 20 14 15 17 18 16 11 4 16 11 13 11 7 12 14 12 8 1 4 4 3 7 4 6 6 4 10
14 14 14 15 15 15 14 13 13 14 16 18 19 19 18 19 20 15 4 2 3 8 13 19 17 11 9 11 11 12 10 16 10 14 8 16 10 5 3 5 5 4 8 9 11
16 16 16 17 17 17 15 15 14 14 15 16 18 20 20 20 15 3 3 3 13 13 9 7 15 13 17 11 16 13 19 20 19 21 18 18 15 6 6 11 15 7 4 9 9
17 17 17 17 18 17 16 15 16 18 17 18 19 19 17 16 4 5 10 19 21 14 9 4 11 10 10 18 20 14 22 27 20 9 12 18 21 20 20 25 17 22 23 24 21
17 17 17 17 16 15 13 14 16 20 19 17 17 19 19 13 4 13 15 16 17 16 10 5 10 14 14 11 21 23 23 19 29 19 16 13 27 23 26 26 26 28 30 28 25
17 17 17 16 14 13 10 10 14 19 19 18 20 25 16 5 10 13 10 12 10 15 12 7 4 12 10 15 19 14 25 29 22 20 25 20 30 24 31 20 23 26 29 28 25
17 16 16 16 15 15 14 14 15 17 21 18 19 17 8 6 18 13 16 17 14 14 16 8 13 9 3 12 14 21 20 15 17 28 17 11 22 34 32 32 30 36 32 37 36
17 16 16 16 15 14 13 14 17 19 16 14 16 14 5 17 22 23 19 16 14 8 13 8 14 8 12 9 10 11 15 22 25 14 12 19 30 37 29 30 36 35 36 34 32
19 17 15 15 15 13 14 16 18 12 8 13 8 8 5 16 23 24 20 19 14 7 10 6 7 10 7 13 9 13 21 26 22 24 17 19 31 28 32 23 25 26 25 24 26
21 18 17 16 15 13 15 17 13 3 12 5 4 5 5 17 25 19 16 17 11 6 2 2 6 9 12 13 20 17 20 20 21 13 21 25 33 22 17 15 23 24 25 28 31
22 20 17 14 13 10 17 15 7 2 15 5 8 8 17 16 22 16 14 12 7 6 6 2 8 16 18 19 20 16 9 21 18 10 21 25 28 24 24 30 32 33 33 34 36
24 22 18 12 9 8 13 7 7 7 9 10 11 13 13 12 9 15 8 3 2 10 5 5 15 14 12 13 17 21 20 12 9 10 7 15 21 18 17 20 27 30 32 34 35
24 23 17 9 4 8 7 6 5 11 4 10 8 5 8 18 8 11 8 6 5 9 12 15 15 7 10 16 18 17 22 21 11 10 14 14 23 23 21 23 28 33 35 35 35
26 24 17 7 1 8 1 10 11 7 3 3 2 2 12 17 5 18 6 8 3 7 8 13 13 12 15 12 18 18 10 13 19 15 13 4 12 13 12 17 17 23 28 32 33
27 24 15 4 3 5 7 10 9 6 4 7 2 4 19 4 10 7 10 3 10 13 7 19 14 10 15 13 12 17 15 11 6 9 12 20 12 19 14 22 19 18 26 31 34
27 18 8 4 4 8 12 10 6 2 4 3 5 12 17 10 16 9 14 13 11 10 14 22 25 14 16 13 9 10 16 17 15 11 14 18 11 23 18 21 20 23 28 25 26
23 11 6 4 4 11 16 2 2 3 5 4 8 12 17 5 12 12 16 12 5 6 9 13 16 11 18 16 11 9 11 9 11 13 18 6 13 23 3 9 12 9 16 22 20
17 2 4 2 5 11 14 1 3 1 4 6 8 18 4 6 10 12 11 10 1 1 7 4 4 3 12 20 18 14 15 9 16 14 19 13 12 8 9 10 13 16 19 18 19
14 1 2 2 6 11 5 0 1 2 4 8 15 5 3 2 8 8 12 8 3 1 4 5 2 6 5 6 13 13 10 19 6 4 11 12 19 17 16 16 10 12 13 20 20
15 3 2 3 7 9 2 2 2 3 8 7 5 3 6 9 9 7 7 4 6 5 2 2 6 2 7 9 4 8 5 10 9 6 8 9 18 9 7 7 3 12 18 25 25
11 1 6 6 9 3 2 3 5 7 10 4 5 8 7 10 6 8 6 11 2 10 9 6 3 3 5 6 7 9 7 6 7 11 3 3 3 2 6 11 11 14 22 24 21
9 1 6 8 2 2 1 5 9 6 2 5 6 10 11 11 8 8 7 5 10 9 10 4 3 5 10 8 7 7 4 9 8 17 10 8 5 4 12 10 15 19 24 29 15
11 5 5 8 2 3 4 5 5 5 6 4 5 4 6 6 7 8 9 8 14 9 4 3 1 6 7 4 4 1 3 2 5 6 12 12 6 9 7 19 21 25 29 27 15
7 3 4 6 3 2 6 4 6 5 11 5 7 9 5 6 9 6 15 10 10 13 11 5 6 10 9 8 8 10 10 8 5 8 13 16 23 26 20 19 22 30 25 25 13
7 2 3 4 2 9 4 5 9 6 2 9 3 7 7 6 16 18 13 14 13 10 9 4 9 11 14 15 14 17 19 17 14 14 11 13 24 23 17 19 22 26 24 24 14
6 4 4 7 9 7 3 3 7 5 5 10 12 14 15 15 18 23 21 14 8 4 9 7 7 10 12 16 17 20 20 20 19 18 18 20 29 20 26 29 24 29 26 24 16
8 6 3 5 4 3 3 4 9 16 12 12 15 15 16 18 21 29 31 33 20 10 5 4 4 5 11 8 9 13 22 24 19 17 16 20 24 22 20 18 19 23 22 26 19

GFSSW_850_spd_036.txt.gz
Wind_Speed
12 12 12 12 12 12 12 12 12 13 14 14 14 14 14 14 14 13 7 8 6 10 14 15 11 8 13 19 19 16 11 17 23 20 13 7 15 17 10 11 8 5 1 6 13
13 13 13 13 13 12 11 11 11 12 13 13 15 14 14 15 15 4 3 9 6 6 5 9 15 14 18 20 16 18 17 27 21 14 11 19 17 12 8 19 14 8 8 8 11
13 12 13 13 13 11 10 10 12 14 15 16 16 16 16 15 2 2 5 10 13 12 7 7 10 18 23 21 29 25 26 22 25 18 15 20 21 18 16 18 21 16 9 3 3
14 13 12 12 12 11 9 10 12 13 14 15 15 18 18 9 2 3 13 17 16 14 5 4 8 20 21 26 26 26 30 32 30 19 13 20 25 26 26 24 23 12 11 13 13
13 12 12 11 11 11 10 11 13 15 15 16 17 20 11 2 5 12 8 11 9 7 5 8 11 15 23 17 29 28 29 29 30 28 23 20 27 26 30 30 29 28 25 23 22
15 13 12 11 11 9 8 8 12 16 16 15 13 11 5 4 10 11 10 12 9 8 8 8 11 12 18 23 24 19 30 35 36 28 25 27 30 25 36 31 32 28 29 30 26
16 15 13 12 12 10 9 9 12 16 17 10 10 7 2 7 11 13 12 10 8 6 8 9 12 15 5 16 26 29 26 24 26 33 29 20 27 35 40 33 29 28 29 30 30
17 15 13 13 12 10 9 11 13 16 8 7 5 3 3 8 15 13 11 11 10 9 8 8 9 17 22 19 18 17 22 24 33 25 27 26 29 38 39 39 32 34 34 33 33
19 17 15 13 12 10 9 13 13 10 6 9 4 3 2 7 13 10 12 12 13 11 10 8 7 16 16 17 18 20 24 30 30 27 24 19 35 37 44 39 33 34 35 34 35
21 20 17 15 13 10 13 14 9 6 7 3 2 3 3 9 16 15 10 12 10 9 11 10 10 12 12 16 22 24 26 27 28 21 25 29 35 29 33 16 30 38 39 36 34
23 22 19 14 11 8 14 11 6 2 7 7 4 6 7 14 16 12 10 11 7 10 12 15 12 14 15 19 25 25 28 22 19 22 26 26 34 31 31 37 34 32 29 29 31
25 22 19 13 8 7 11 4 3 5 9 11 9 9 8 7 16 12 7 9 12 13 13 12 16 17 15 14 20 22 26 31 20 15 20 25 32 29 27 30 36 36 39 37 36
26 24 19 10 3 6 3 4 4 9 7 3 4 5 4 12 11 11 13 13 13 14 13 15 16 10 10 14 19 23 25 25 27 20 17 21 27 27 22 27 31 33 34 35 37
27 26 17 4 1 4 1 7 10 5 5 5 4 3 6 15 9 13 9 10 11 16 15 15 11 13 16 19 18 21 22 26 24 22 23 21 20 23 25 29 29 33 35 37 37
29 22 14 2 3 2 3 9 7 2 4 2 3 2 11 6 11 7 7 12 15 17 16 21 19 16 18 20 19 20 18 24 23 23 25 30 19 19 19 21 19 18 27 33 35
27 16 6 7 4 3 9 5 4 6 1 2 2 9 11 10 9 7 11 13 14 15 16 21 22 18 22 19 17 14 17 20 19 14 18 24 22 20 21 26 22 19 25 28 29
23 7 5 4 0 8 10 1 5 5 2 2 7 11 16 9 13 8 14 10 8 8 12 18 14 14 15 19 20 16 16 11 15 18 19 21 20 19 7 1 1 8 18 10 14
21 1 3 1 3 9 4 6 5 3 5 9 10 18 11 10 9 13 11 12 2 8 13 7 7 14 7 18 21 21 19 15 20 17 20 26 23 16 16 15 18 14 12 12 13
17 2 2 2 4 9 8 5 3 4 5 9 14 10 8 6 8 12 12 9 5 5 8 9 6 12 10 12 14 20 20 21 24 19 16 18 26 26 19 11 9 3 6 9 12
12 2 2 3 6 5 5 4 3 3 8 8 9 7 12 14 13 10 10 5 6 5 9 7 10 10 4 7 13 8 13 4 15 13 20 17 22 15 24 27 15 0 9 16 18
7 4 3 4 5 5 3 5 7 6 9 5 9 12 12 12 11 12 7 13 3 9 14 14 7 11 13 6 4 5 9 12 14 17 13 12 16 19 14 11 8 6 14 18 19
8 3 4 8 6 2 4 8 9 5 4 8 8 10 11 12 11 14 12 7 15 14 15 13 6 11 16 10 5 8 11 5 5 20 16 10 3 11 18 14 6 11 19 21 20
11 5 5 5 2 5 6 7 7 7 4 4 6 7 13 14 8 8 12 8 17 15 6 8 5 10 9 8 4 8 14 13 14 14 14 12 4 14 10 6 11 16 21 22 21
6 3 0 4 4 5 9 4 5 3 11 7 10 14 11 12 13 10 18 12 16 18 16 12 13 15 13 18 14 11 12 12 13 10 13 16 20 8 11 12 15 18 24 23 21
4 2 3 3 3 10 8 8 8 6 3 12 6 8 12 7 18 22 18 17 18 24 24 5 14 18 18 19 17 18 18 17 17 19 18 18 24 19 17 16 18 25 28 22 18
5 5 5 15 7 8 1 3 8 6 11 12 13 12 15 18 19 26 24 19 8 4 11 4 6 13 20 18 18 22 21 21 21 20 21 22 27 22 25 28 26 25 23 20 17
3 5 3 8 5 5 4 6 13 16 11 9 12 17 19 21 26 32 34 34 19 6 7 4 4 9 13 11 13 16 17 19 22 21 21 21 23 21 23 20 20 24 23 20 19

GFSSW_850_spd_042.txt.gz
Wind_Speed
12 11 11 12 11 11 10 9 8 9 10 12 12 12 13 15 14 9 11 8 11 16 15 13 13 14 17 21 23 24 16 18 25 23 18 25 21 28 16 20 23 24 16 9 7
14 13 12 12 12 11 10 9 9 10 11 11 12 13 16 17 15 7 7 9 15 15 9 8 14 16 22 19 20 19 17 28 24 22 19 21 21 28 16 23 22 27 11 2 18
15 14 13 13 12 11 11 10 10 11 12 13 15 14 16 12 9 7 3 11 9 8 7 11 13 16 23 26 28 27 27 25 30 33 29 30 25 17 18 21 25 22 20 10 10
17 15 14 13 12 12 12 12 12 13 14 16 16 13 9 5 2 4 11 9 8 10 6 9 13 18 19 21 28 27 35 35 36 34 34 29 33 19 20 25 32 24 30 12 19
19 17 16 14 13 13 13 12 12 13 14 16 14 13 7 7 1 7 11 13 12 7 9 9 12 16 19 20 25 29 29 38 38 36 34 37 32 29 21 29 33 34 28 27 25
19 19 18 17 15 15 14 14 14 15 15 16 10 9 7 14 3 4 7 8 8 8 9 10 12 15 21 22 22 27 32 34 37 38 35 30 31 30 36 27 30 33 36 14 18
20 20 19 17 16 15 14 14 14 16 16 11 8 8 10 12 3 5 6 10 10 8 9 10 12 11 15 18 22 23 26 26 29 30 29 34 26 30 36 33 33 33 35 33 33
22 23 21 18 17 15 14 13 14 15 11 6 8 5 9 3 4 4 9 10 8 11 13 14 12 14 17 19 26 22 23 20 25 27 30 26 29 29 39 29 30 33 36 35 35
24 23 21 19 17 15 12 12 12 11 7 5 3 4 11 5 3 7 11 11 13 12 11 11 11 15 16 14 15 16 20 24 26 24 23 26 31 27 34 31 31 32 34 37 35
26 26 23 19 15 12 10 13 13 10 4 5 8 8 11 7 7 11 10 11 12 12 13 12 15 13 13 13 16 17 20 20 26 24 25 25 29 29 34 34 30 32 33 37 36
27 28 27 20 12 7 7 7 5 2 8 15 16 16 13 6 9 8 8 10 11 11 14 13 12 13 17 17 20 19 21 25 26 26 26 22 25 27 24 31 30 29 29 36 45
26 26 25 17 9 3 5 7 7 10 12 17 17 14 12 9 8 10 9 10 14 14 15 13 15 15 15 17 19 20 23 25 24 24 21 24 28 29 21 21 25 29 33 34 32
25 25 21 14 5 2 4 5 9 11 9 7 4 5 7 6 11 15 7 10 14 16 15 15 17 20 19 19 22 20 19 22 23 20 20 24 26 26 27 27 27 30 31 34 34
25 24 17 5 3 6 2 8 11 10 5 7 7 4 5 4 17 4 9 8 12 16 17 15 19 20 20 22 19 21 20 23 22 19 17 18 18 21 22 24 21 29 35 27 27
24 21 11 2 5 7 8 11 12 4 4 4 8 5 5 9 12 12 5 9 13 15 14 18 19 19 21 23 22 25 23 21 22 22 21 22 15 21 21 24 23 20 31 30 28
25 17 2 4 6 6 10 12 6 5 2 5 1 4 9 12 17 7 15 13 22 20 18 20 21 15 17 21 22 22 23 25 22 18 17 24 20 22 19 22 24 22 27 34 37
24 15 6 3 5 9 12 9 5 6 5 3 6 11 13 18 5 6 8 13 13 10 13 17 17 8 13 17 20 14 15 13 15 15 17 22 21 18 23 23 27 23 27 30 31
22 9 5 6 5 8 9 8 5 9 11 15 10 15 17 11 7 7 13 12 7 11 13 12 15 7 4 21 20 10 6 7 12 16 18 20 15 17 20 23 29 32 36 30 22
20 6 4 2 3 6 10 6 3 10 12 11 14 12 11 14 12 13 11 10 7 8 12 14 15 19 20 17 17 20 13 12 12 17 16 18 24 20 22 22 21 26 33 25 24
18 5 5 5 2 4 6 10 13 8 10 12 12 8 13 16 13 13 13 11 10 15 10 14 21 19 23 11 17 24 18 10 1 5 17 17 21 14 16 16 21 22 20 32 22
9 5 1 0 4 7 5 11 12 16 13 7 12 14 15 14 13 13 14 16 11 15 15 18 14 17 20 19 16 11 10 6 7 6 10 14 12 8 21 24 27 26 26 7 10
6 3 0 4 8 6 5 8 5 6 9 12 7 12 9 14 15 19 18 13 18 14 15 10 7 16 22 25 21 19 16 11 9 14 13 12 18 16 21 26 30 39 10 20 9
10 6 2 3 3 6 12 14 12 6 9 11 9 10 12 14 14 10 17 21 20 12 8 8 4 10 14 18 8 7 14 17 15 9 15 12 14 15 21 23 39 35 27 29 16
9 4 2 6 5 8 13 13 12 14 10 4 7 9 13 12 13 11 18 20 5 7 5 6 6 14 15 21 3 6 19 25 18 10 14 14 19 8 8 11 24 34 35 24 18
6 5 6 6 11 13 9 13 13 13 12 11 11 14 13 16 17 18 15 22 21 6 4 6 8 15 20 23 22 21 26 30 23 18 18 16 18 12 8 7 20 31 44 21 15
10 8 12 20 12 14 6 9 12 10 13 14 14 14 17 17 17 25 22 19 18 18 7 3 5 14 18 19 21 24 25 27 25 20 22 18 17 13 9 16 28 39 24 14 13
7 6 7 12 10 11 9 10 11 15 10 12 16 17 19 17 27 30 33 32 22 20 4 3 5 9 15 15 15 14 16 17 24 17 20 18 12 14 9 14 18 13 18 13 12